Location: Sternwarte Stuttgart
(48.7670°N, 9.1830°E)
Time: 04:26:39
(UTC+02:00)

ISS - All Passes

Search period start: 30 May 2015 00:00
Search period end: 09 June 2015 00:00
Orbit: 399 x 404 km, 51.6° (Epoch: 29 May)

Date Brightness Start Highest point End Pass type
(mag) Time Alt. Az. Time Alt. Az. Time Alt. Az.
30 May - 01:10:42 10° WSW 01:13:57 70° NNW 01:17:13 10° ENE visible
30 May - 02:47:26 10° WNW 02:50:37 49° N 02:53:48 10° E visible
30 May - 04:23:55 10° WNW 04:27:11 79° SSW 04:30:27 10° ESE visible
30 May - 06:00:59 10° W 06:03:13 17° SW 06:05:24 10° S daylight
30 May - 22:42:19 10° S 22:44:37 18° SE 22:46:58 10° E visible
31 May - 00:17:25 10° WSW 00:20:40 84° SSE 00:23:57 10° ENE visible
31 May - 01:54:05 10° W 01:57:15 48° N 02:00:27 10° ENE visible
31 May - 03:30:39 10° WNW 03:33:55 74° NNE 03:37:11 10° ESE visible
31 May - 05:07:17 10° W 05:10:08 28° SW 05:12:58 10° SSE daylight
31 May - 21:50:48 10° SSE 21:51:35 11° SE 21:52:28 10° ESE daylight
31 May - 23:24:16 10° SW 23:27:27 54° SSE 23:30:39 10° ENE visible
01 Jun - 01:00:42 10° W 01:03:54 53° N 01:07:07 10° ENE visible
01 Jun - 02:37:22 10° WNW 02:40:36 57° NNE 02:43:49 10° E visible
01 Jun - 04:13:51 10° WNW 04:16:59 45° SSW 04:20:07 10° SE visible
01 Jun - 22:31:18 10° SSW 22:34:15 33° SSE 22:37:15 10° E visible
02 Jun - 00:07:19 10° W 00:10:33 66° NNW 00:13:48 10° ENE visible
02 Jun - 01:44:02 10° WNW 01:47:13 50° N 01:50:25 10° E visible
02 Jun - 03:20:30 10° WNW 03:23:46 72° SSW 03:27:01 10° ESE visible
02 Jun - 04:57:46 10° W 04:59:45 15° SW 05:01:41 10° S daylight
02 Jun - 21:38:39 10° SSW 21:41:07 21° SE 21:43:40 10° E daylight
02 Jun - 23:13:59 10° WSW 23:17:14 89° NW 23:20:30 10° ENE visible
03 Jun - 00:50:40 10° WNW 00:53:50 48° N 00:57:01 10° ENE visible
03 Jun - 02:27:12 10° WNW 02:30:28 80° NNE 02:33:45 10° ESE visible
03 Jun - 04:03:55 10° W 04:06:39 25° SW 04:09:22 10° SSE visible
03 Jun - 20:46:41 10° SSE 20:48:03 12° SE 20:49:31 10° ESE daylight
03 Jun - 22:20:45 10° SW 22:23:57 61° SSE 22:27:11 10° ENE visible
03 Jun - 23:57:15 10° W 00:00:26 52° N 00:03:39 10° ENE visible
04 Jun - 01:33:54 10° WNW 01:37:07 60° NNE 01:40:22 10° E visible
04 Jun - 03:10:23 10° WNW 03:13:29 40° SSW 03:16:33 10° SE visible
04 Jun - 21:27:41 10° SW 21:30:43 37° SSE 21:33:47 10° ENE daylight
04 Jun - 23:03:50 10° W 23:07:03 62° NNW 23:10:18 10° ENE visible
05 Jun - 00:40:32 10° WNW 00:43:44 51° N 00:46:56 10° E visible
05 Jun - 02:17:00 10° WNW 02:20:15 64° SSW 02:23:28 10° SE visible
05 Jun - 03:54:30 10° WSW 03:56:11 13° SW 03:57:47 10° SSW visible
05 Jun - 20:34:55 10° SSW 20:37:33 23° SE 20:40:13 10° E daylight
05 Jun - 22:10:27 10° WSW 22:13:42 83° NNW 22:16:58 10° ENE visible
05 Jun - 23:47:09 10° WNW 23:50:19 48° N 23:53:30 10° ENE visible
06 Jun - 01:23:40 10° WNW 01:26:56 86° NNE 01:30:12 10° ESE visible
06 Jun - 03:00:27 10° W 03:03:04 22° SW 03:05:39 10° SSE visible
06 Jun - 19:42:41 10° S 19:44:25 14° SE 19:46:14 10° ESE daylight
06 Jun - 21:17:09 10° WSW 21:20:22 68° SSE 21:23:37 10° ENE daylight
06 Jun - 22:53:42 10° W 22:56:53 50° N 23:00:05 10° ENE visible
07 Jun - 00:30:19 10° WNW 00:33:34 64° NNE 00:36:49 10° E visible
07 Jun - 02:06:51 10° W 02:09:52 35° SSW 02:12:54 10° SE visible
07 Jun - 20:24:01 10° SW 20:27:06 42° SSE 20:30:12 10° ENE daylight
07 Jun - 22:00:15 10° W 22:03:28 59° NNW 22:06:42 10° ENE visible
07 Jun - 23:36:57 10° WNW 23:40:09 52° N 23:43:21 10° E visible
08 Jun - 01:13:24 10° WNW 01:16:37 58° SSW 01:19:49 10° SE visible
08 Jun - 02:51:15 10° WSW 02:52:30 12° SW 02:53:40 10° SSW visible
08 Jun - 19:31:08 10° SSW 19:33:52 26° SE 19:36:39 10° E daylight
08 Jun - 21:06:49 10° WSW 21:10:04 77° NNW 21:13:20 10° ENE daylight
08 Jun - 22:43:32 10° WNW 22:46:42 48° N 22:49:53 10° ENE visible
